Location: Recife
(8.0585°S, 34.8848°W)
Time: 20:20:45
(UTC-03:00)

Vanguard 2 Rocket - Pass Details

Date: 18 April 2026
Orbit: 553 x 3286 km, 32.9° (Epoch: 13 May)

Event Time Altitude Azimuth Distance (km) Brightness Sun altitude
Exits shadow 04:02:19 37° 270° (W) 1,317 7.2 -20.2°
Maximum altitude 04:04:26 59° 209° (SSW) 1,127 7.1 -19.7°
Drops below altitude 10° 04:12:58 10° 131° (SE) 3,708 10.6 -17.6°
Sets 04:17:10 0° 127° (SE) 5,168 11.4 -16.6°
